TimeCST,TemperatureF,Dew PointF,Humidity,Sea Level PressureIn,VisibilityMPH,Wind Direction,Wind SpeedMPH,Gust SpeedMPH,PrecipitationIn,Events,Conditions,WindDirDegrees,DateUTC
12:53 AM,37.0,26.1,65,30.23,10.0,SSW,8.1,-,N/A,,Clear,200,2013-01-19 06:53:00
1:53 AM,36.0,25.0,64,30.23,10.0,SSW,4.6,-,N/A,,Clear,210,2013-01-19 07:53:00
2:53 AM,36.0,25.0,64,30.22,10.0,SSW,4.6,-,N/A,,Clear,200,2013-01-19 08:53:00
3:53 AM,34.0,23.0,64,30.20,10.0,SSW,3.5,-,N/A,,Clear,200,2013-01-19 09:53:00
4:53 AM,35.1,24.1,64,30.19,10.0,South,6.9,-,N/A,,Clear,180,2013-01-19 10:53:00
5:53 AM,37.0,23.0,57,30.19,10.0,SSW,6.9,-,N/A,,Clear,200,2013-01-19 11:53:00
6:53 AM,36.0,23.0,59,30.19,10.0,South,5.8,-,N/A,,Clear,190,2013-01-19 12:53:00
7:53 AM,37.0,24.1,59,30.19,10.0,SSW,6.9,-,N/A,,Clear,210,2013-01-19 13:53:00
8:53 AM,41.0,25.0,53,30.19,10.0,SSW,8.1,-,N/A,,Clear,210,2013-01-19 14:53:00
9:53 AM,46.9,27.0,46,30.18,10.0,SSW,9.2,-,N/A,,Clear,210,2013-01-19 15:53:00
10:53 AM,52.0,28.9,41,30.16,10.0,SW,12.7,24.2,N/A,,Clear,220,2013-01-19 16:53:00
11:53 AM,55.0,30.0,38,30.13,10.0,WSW,13.8,21.9,N/A,,Clear,250,2013-01-19 17:53:00
12:53 PM,59.0,32.0,36,30.09,10.0,SW,13.8,19.6,N/A,,Clear,230,2013-01-19 18:53:00
1:53 PM,63.0,32.0,31,30.06,10.0,SW,10.4,20.7,N/A,,Clear,230,2013-01-19 19:53:00
2:53 PM,64.0,32.0,30,30.05,10.0,WSW,13.8,21.9,N/A,,Clear,240,2013-01-19 20:53:00
3:53 PM,63.0,30.0,29,30.05,10.0,WSW,13.8,23.0,N/A,,Clear,250,2013-01-19 21:53:00
4:53 PM,61.0,30.0,31,30.06,10.0,SW,10.4,18.4,N/A,,Clear,230,2013-01-19 22:53:00
5:53 PM,55.0,28.9,37,30.08,10.0,WSW,6.9,-,N/A,,Clear,240,2013-01-19 23:53:00
6:53 PM,51.1,28.9,43,30.11,10.0,WSW,5.8,-,N/A,,Clear,240,2013-01-20 00:53:00
7:53 PM,46.9,30.0,52,30.14,10.0,WSW,5.8,-,N/A,,Clear,240,2013-01-20 01:53:00
8:53 PM,46.0,30.0,54,30.16,10.0,West,6.9,-,N/A,,Clear,270,2013-01-20 02:53:00
9:53 PM,45.0,30.9,58,30.16,10.0,West,6.9,-,N/A,,Clear,270,2013-01-20 03:53:00
10:53 PM,42.1,30.9,65,30.17,10.0,West,5.8,-,N/A,,Clear,260,2013-01-20 04:53:00
11:53 PM,46.0,33.1,61,30.17,10.0,WNW,9.2,-,N/A,,Clear,300,2013-01-20 05:53:00